FW8511 Weather Reports


time (UTC)temp
F
wind
direction
speed
knots
gust
knots
rain 1hr
in
rain 24hr
in
rain mn
in
humidity
%
barometer
mb
20260504174141 85 64 3.5 7.8 0.00 0.00 0.00 59 1014.1
20260504173241 84 69 3.5 11.3 0.00 0.00 0.00 61 1014.4
20260504172341 85 68 2.6 7.8 0.00 0.00 0.00 61 1014.6
20260504171441 84 70 3.5 9.6 0.00 0.00 0.00 61 1014.7
20260504160241 82 63 3.5 11.3 0.00 0.00 0.00 66 1015.4
20260504150841 80 60 4.3 10.4 0.00 0.00 0.00 69 1015.7
20260504140541 76 61 3.5 8.7 0.00 0.00 0.00 73 1015.5
20260504130241 73 62 3.5 7.8 0.00 0.00 0.00 80 1015.0
20260504110540 70 38 1.7 8.7 0.00 0.00 0.00 87 1014.0
20260504081437 71 62 2.6 6.1 0.00 0.00 0.00 86 1013.8
20260504080536 71 57 1.7 6.1 0.00 0.00 0.00 86 1013.9
20260504070236 71 68 2.6 7.8 0.00 0.00 0.00 86 1014.4
20260504050536 71 58 1.7 6.1 0.00 0.00 0.00 88 1015.3
20260504045636 71 65 2.6 7.0 0.00 0.00 0.00 87 1015.0
20260504044736 71 68 2.6 7.8 0.00 0.00 0.00 87 1014.7
20260504043837 71 57 1.7 6.1 0.00 0.00 0.00 86 1015.5
20260504042935 71 61 1.7 4.3 0.00 0.00 0.00 86 1015.5
20260504040236 71 65 2.6 6.1 0.00 0.00 0.00 86 1015.3
20260504035335 71 63 1.7 4.3 0.00 0.00 0.00 86 1015.5
20260504034435 71 70 1.7 7.0 0.00 0.00 0.00 86 1015.7
20260504033536 71 67 2.6 5.2 0.00 0.00 0.00 86 1015.5
20260504030836 71 70 1.7 6.1 0.00 0.04 0.00 87 1015.8
20260504025936 71 56 1.7 5.2 0.00 0.04 0.00 87 1015.7
20260504024136 71 65 2.6 6.1 0.00 0.05 0.00 87 1015.6
20260504023235 71 63 2.6 7.8 0.00 0.07 0.00 87 1015.7
20260504022336 71 65 2.6 8.7 0.00 0.10 0.00 87 1015.8
20260504020536 71 65 1.7 8.7 0.00 0.14 0.00 87 1015.8
20260504014736 71 67 2.6 7.8 0.00 0.27 0.00 86 1015.6
20260504012936 71 65 2.6 7.8 0.00 0.29 0.00 87 1015.2
20260504011136 71 65 3.5 7.0 0.00 0.29 0.00 86 1015.2
20260504010236 71 68 3.5 9.6 0.00 0.30 0.00 85 1015.1
20260504005336 72 63 3.5 8.7 0.00 0.34 0.00 83 1015.2
20260504003536 72 61 3.5 7.8 0.00 0.37 0.00 84 1014.9
20260504002636 72 59 2.6 7.0 0.00 0.38 0.00 86 1014.5
20260504000836 72 67 2.6 7.8 0.00 0.38 0.00 86 1014.6
20260503235936 72 61 2.6 6.1 0.00 0.39 0.00 86 1014.5
20260503235036 72 64 1.7 7.0 0.00 0.39 0.00 86 1014.4
20260503234136 73 64 2.6 7.0 0.00 0.43 0.00 85 1014.3
20260503233236 73 63 3.5 11.3 0.00 0.47 0.00 84 1014.1
20260503232336 73 61 3.5 9.6 0.00 0.54 0.00 84 1014.0
20260503231436 73 65 4.3 11.3 0.00 0.54 0.00 85 1013.9
20260503230536 73 61 3.5 8.7 0.00 0.54 0.00 85 1013.9
20260503225636 74 66 2.6 7.8 0.00 0.54 0.00 84 1013.8
20260503224736 74 59 2.6 7.8 0.00 0.54 0.00 84 1013.6
20260503223836 74 67 2.6 7.0 0.00 0.54 0.00 84 1013.6
20260503222936 74 65 2.6 7.0 0.00 0.56 0.00 83 1013.6
20260503222035 74 65 3.5 8.7 0.00 0.56 0.00 83 1013.6
20260503221136 74 65 2.6 7.8 0.00 0.56 0.00 83 1013.6
20260503215336 75 65 3.5 8.7 0.00 0.56 0.00 81 1013.5
20260503214436 75 55 1.7 7.0 0.00 0.56 0.00 81 1013.6
20260503212636 75 62 2.6 8.7 0.00 0.56 0.00 81 1013.8
20260503211736 75 60 1.7 7.8 0.00 0.56 0.00 82 1014.0
20260503205936 75 67 3.5 9.6 0.00 0.56 0.00 80 1013.9
20260503205035 75 64 2.6 7.0 0.00 0.56 0.00 81 1014.1
20260503204136 75 63 2.6 9.6 0.00 0.56 0.00 82 1014.0
20260503203235 75 70 1.7 6.1 0.00 0.56 0.00 81 1014.2
20260503202335 75 65 3.5 8.7 0.00 0.56 0.00 81 1014.3
20260503201436 76 66 2.6 7.0 0.00 0.56 0.00 80 1014.2
20260503200535 76 65 2.6 7.0 0.00 0.56 0.00 81 1014.2
20260503195636 76 67 3.5 8.7 0.00 0.56 0.00 80 1014.4
20260503194735 76 62 2.6 9.6 0.00 0.56 0.00 80 1014.4
20260503193835 77 62 3.5 8.7 0.00 0.56 0.00 79 1014.5
20260503191135 77 68 3.5 7.8 0.00 0.56 0.00 77 1014.9
20260503190236 77 75 2.6 7.0 0.00 0.56 0.00 78 1015.0
20260503185335 77 64 2.6 7.0 0.00 0.56 0.00 79 1015.0
20260503183535 77 61 3.5 9.6 0.00 0.56 0.00 76 1015.3
20260503182636 77 56 3.5 11.3 0.00 0.56 0.00 79 1015.4
20260503181736 76 63 3.5 8.7 0.00 0.56 0.00 80 1015.4
20260503180836 76 60 4.3 10.4 0.00 0.56 0.00 79 1015.3
20260503175936 76 60 3.5 13.0 0.00 0.56 0.00 79 1015.3
20260503175035 76 59 4.3 12.2 0.00 0.56 0.00 80 1015.4